JES1371 SGAS-SCEL

Flight info

Callsign JES1371
Flight time N/A
Altitude 36000
Route ARPAS UZ124 SIS UL531 CBA UZ105 UMKAL
Aircraft A320/M-SDE3FGHIRWY/LB1

Departure

Time 2026-04-26 14:34
Airport Silvio Pettirossi International Airport (SGAS)

Arrival

Time N/A
Airport Comodoro Arturo Merino Benítez International Airport (SCEL)
Time Latitude Longitude Altitude Speed Heading
2026-04-26 14:07 -25.24233 -57.51548 279 ft 0 kts 102°
2026-04-26 14:25 -25.24232 -57.51556 278 ft 4 kts 103°
2026-04-26 14:25 -25.24225 -57.51585 278 ft 4 kts 106°
2026-04-26 14:25 -25.24217 -57.51614 278 ft 4 kts 101°
2026-04-26 14:26 -25.24217 -57.51639 279 ft 4 kts 50°
2026-04-26 14:26 -25.24221 -57.51645 279 ft 0 kts 12°
2026-04-26 14:28 -25.24211 -57.51642 279 ft 2 kts 12°
2026-04-26 14:28 -25.24188 -57.51636 279 ft 5 kts 14°
2026-04-26 14:28 -25.24150 -57.51626 279 ft 7 kts 12°
2026-04-26 14:29 -25.24097 -57.51613 278 ft 9 kts 12°
2026-04-26 14:29 -25.24031 -57.51619 280 ft 11 kts 331°
2026-04-26 14:29 -25.23961 -57.51668 280 ft 13 kts 329°
2026-04-26 14:29 -25.23867 -57.51666 278 ft 15 kts 12°
2026-04-26 14:30 -25.23758 -57.51639 280 ft 17 kts 12°
2026-04-26 14:30 -25.23634 -57.51609 278 ft 19 kts 12°
2026-04-26 14:30 -25.23496 -57.51574 278 ft 21 kts 13°
2026-04-26 14:30 -25.23347 -57.51539 278 ft 22 kts 12°
2026-04-26 14:31 -25.23212 -57.51507 278 ft 21 kts 13°
2026-04-26 14:31 -25.23065 -57.51469 277 ft 23 kts 12°
2026-04-26 14:31 -25.22902 -57.51430 277 ft 25 kts 12°
2026-04-26 14:31 -25.22734 -57.51387 277 ft 24 kts 11°
2026-04-26 14:32 -25.22615 -57.51360 277 ft 12 kts 11°
2026-04-26 14:32 -25.22546 -57.51406 280 ft 15 kts 284°
2026-04-26 14:32 -25.22536 -57.51460 274 ft 3 kts 283°
2026-04-26 14:32 -25.22527 -57.51516 268 ft 11 kts 270°
2026-04-26 14:33 -25.22577 -57.51569 268 ft 6 kts 191°
2026-04-26 14:33 -25.22581 -57.51570 268 ft 0 kts 191°
2026-04-26 14:33 -25.22657 -57.51587 269 ft 40 kts 191°
2026-04-26 14:33 -25.23159 -57.51709 273 ft 104 kts 192°
2026-04-26 14:34 -25.24030 -57.51921 281 ft 149 kts 192°
2026-04-26 14:34 -25.25113 -57.52191 668 ft 159 kts 192°
2026-04-26 14:34 -25.26182 -57.52473 1325 ft 158 kts 193°
2026-04-26 14:34 -25.27270 -57.52751 1739 ft 171 kts 192°
2026-04-26 14:35 -25.28491 -57.53058 2052 ft 190 kts 192°
2026-04-26 14:35 -25.29844 -57.53388 2421 ft 209 kts 192°
2026-04-26 14:35 -25.31347 -57.53752 2851 ft 232 kts 192°
2026-04-26 14:35 -25.33006 -57.54148 3304 ft 255 kts 193°
2026-04-26 14:36 -25.34703 -57.54830 4042 ft 264 kts 208°
2026-04-26 14:36 -25.36271 -57.55906 4937 ft 267 kts 218°
2026-04-26 14:36 -25.37730 -57.57198 5821 ft 270 kts 223°
2026-04-26 14:36 -25.39167 -57.58557 6686 ft 273 kts 224°
2026-04-26 14:37 -25.40630 -57.59928 7530 ft 277 kts 223°
2026-04-26 14:37 -25.42109 -57.61271 8335 ft 280 kts 223°
2026-04-26 14:37 -25.43664 -57.62642 9101 ft 284 kts 222°
2026-04-26 14:37 -25.45232 -57.63989 9848 ft 288 kts 222°
2026-04-26 14:38 -25.46831 -57.65348 10341 ft 302 kts 221°
2026-04-26 14:38 -25.48564 -57.66817 10508 ft 326 kts 221°
2026-04-26 14:38 -25.50415 -57.68379 10824 ft 340 kts 221°
2026-04-26 14:38 -25.52319 -57.69972 11416 ft 345 kts 221°
2026-04-26 14:39 -25.54248 -57.71585 12049 ft 348 kts 221°
2026-04-26 14:39 -25.56189 -57.73214 12672 ft 352 kts 221°
2026-04-26 14:39 -25.58149 -57.74860 13291 ft 355 kts 221°
2026-04-26 14:39 -25.60125 -57.76522 13902 ft 358 kts 221°
2026-04-26 14:40 -25.62119 -57.78200 14501 ft 361 kts 221°
2026-04-26 14:40 -25.64108 -57.79875 15092 ft 365 kts 221°
2026-04-26 14:40 -25.66136 -57.81582 15659 ft 367 kts 221°
2026-04-26 14:40 -25.68175 -57.83301 16214 ft 370 kts 221°
2026-04-26 14:41 -25.70260 -57.85066 16776 ft 373 kts 221°
2026-04-26 14:41 -25.72303 -57.86798 17323 ft 376 kts 221°
2026-04-26 14:41 -25.74413 -57.88531 17834 ft 379 kts 219°
2026-04-26 14:41 -25.76602 -57.90185 18336 ft 383 kts 217°
2026-04-26 14:42 -25.78859 -57.91802 18867 ft 387 kts 217°
2026-04-26 14:42 -25.81144 -57.93403 19421 ft 389 kts 217°
2026-04-26 14:42 -25.83430 -57.95012 19916 ft 389 kts 218°
2026-04-26 14:42 -25.85717 -57.96646 20383 ft 392 kts 218°
2026-04-26 14:43 -25.88009 -57.98300 20894 ft 394 kts 219°
2026-04-26 14:43 -25.90306 -57.99973 21363 ft 396 kts 219°
2026-04-26 14:43 -25.92610 -58.01661 21820 ft 397 kts 219°
2026-04-26 14:43 -25.94923 -58.03355 22252 ft 399 kts 220°
2026-04-26 14:44 -25.97247 -58.05055 22697 ft 401 kts 220°
2026-04-26 14:44 -25.99581 -58.06763 23111 ft 402 kts 220°
2026-04-26 14:44 -26.01925 -58.08477 23514 ft 404 kts 220°
2026-04-26 14:44 -26.04280 -58.10197 23910 ft 406 kts 221°
2026-04-26 14:45 -26.06647 -58.11929 24287 ft 407 kts 221°
2026-04-26 14:45 -26.08214 -58.13075 24537 ft 408 kts 221°
2026-04-26 14:45 -26.11400 -58.15405 25001 ft 411 kts 221°
2026-04-26 14:45 -26.13797 -58.17157 25370 ft 413 kts 221°
2026-04-26 14:46 -26.16206 -58.18922 25714 ft 414 kts 221°
2026-04-26 14:46 -26.18617 -58.20691 26036 ft 416 kts 221°
2026-04-26 14:46 -26.21035 -58.22467 26368 ft 419 kts 221°
2026-04-26 14:46 -26.23501 -58.24216 26701 ft 422 kts 219°
2026-04-26 14:47 -26.25987 -58.25890 27008 ft 425 kts 219°
2026-04-26 14:47 -26.28542 -58.27563 27325 ft 427 kts 218°
2026-04-26 14:47 -26.31120 -58.29239 27645 ft 429 kts 218°
2026-04-26 14:47 -26.33695 -58.30918 27958 ft 431 kts 219°
2026-04-26 14:48 -26.36286 -58.32621 28279 ft 432 kts 219°
2026-04-26 14:48 -26.38868 -58.34335 28592 ft 433 kts 219°
2026-04-26 14:48 -26.41461 -58.36068 28911 ft 435 kts 219°
2026-04-26 14:48 -26.44062 -58.37807 29254 ft 436 kts 219°
2026-04-26 14:49 -26.46667 -58.39545 29666 ft 435 kts 219°
2026-04-26 14:49 -26.49261 -58.41274 30152 ft 433 kts 219°
2026-04-26 14:49 -26.51844 -58.42996 30611 ft 431 kts 220°
2026-04-26 14:49 -26.54414 -58.44711 31092 ft 429 kts 220°
2026-04-26 14:50 -26.56967 -58.46421 31569 ft 427 kts 220°
2026-04-26 14:50 -26.59505 -58.48128 32037 ft 425 kts 220°
2026-04-26 14:50 -26.62030 -58.49826 32509 ft 422 kts 220°
2026-04-26 14:50 -26.64543 -58.51514 32974 ft 420 kts 220°
2026-04-26 14:51 -26.67045 -58.53194 33427 ft 419 kts 220°
2026-04-26 14:51 -26.69537 -58.54865 33878 ft 417 kts 220°
2026-04-26 14:51 -26.72018 -58.56525 34343 ft 414 kts 221°
2026-04-26 14:51 -26.74460 -58.58157 34761 ft 412 kts 221°
2026-04-26 14:52 -26.76950 -58.59826 35164 ft 411 kts 221°
2026-04-26 14:52 -26.79361 -58.61446 35568 ft 409 kts 221°
2026-04-26 14:52 -26.81799 -58.63087 35887 ft 408 kts 221°
2026-04-26 14:53 -26.86675 -58.66381 35962 ft 411 kts 221°
2026-04-26 14:53 -26.91590 -58.69695 35962 ft 411 kts 221°
2026-04-26 14:54 -26.96493 -58.72995 35969 ft 411 kts 221°
2026-04-26 14:54 -27.01383 -58.76294 35971 ft 410 kts 221°
2026-04-26 14:55 -27.06244 -58.79576 35979 ft 410 kts 221°
2026-04-26 14:55 -27.11134 -58.82888 35993 ft 410 kts 221°
2026-04-26 14:56 -27.16020 -58.86198 35998 ft 410 kts 222°
2026-04-26 14:56 -27.20897 -58.89514 36010 ft 409 kts 222°
2026-04-26 14:57 -27.25771 -58.92834 36013 ft 409 kts 222°
2026-04-26 14:57 -27.30639 -58.96148 36017 ft 409 kts 222°
2026-04-26 14:58 -27.35478 -58.99431 36019 ft 409 kts 222°
2026-04-26 14:58 -27.40343 -59.02741 36023 ft 408 kts 222°
2026-04-26 14:59 -27.45041 -59.06212 36022 ft 395 kts 231°
2026-04-26 14:59 -27.48898 -59.10471 36021 ft 388 kts 235°
2026-04-26 15:00 -27.52685 -59.14789 36019 ft 387 kts 234°
2026-04-26 15:00 -27.56474 -59.19101 36020 ft 386 kts 234°
2026-04-26 15:01 -27.60249 -59.23399 36020 ft 385 kts 235°
2026-04-26 15:01 -27.64012 -59.27700 36019 ft 385 kts 235°
2026-04-26 15:02 -27.67771 -59.31994 36019 ft 384 kts 235°
2026-04-26 15:02 -27.71529 -59.36282 36020 ft 384 kts 235°
2026-04-26 15:03 -27.75276 -59.40562 36020 ft 383 kts 235°
2026-04-26 15:03 -27.79004 -59.44842 36021 ft 382 kts 235°
2026-04-26 15:04 -27.82722 -59.49113 36020 ft 381 kts 235°
2026-04-26 15:04 -27.86422 -59.53351 36020 ft 380 kts 235°
2026-04-26 15:05 -27.90132 -59.57603 36019 ft 380 kts 235°
2026-04-26 15:05 -27.93832 -59.61857 36019 ft 379 kts 235°
2026-04-26 15:06 -27.97525 -59.66111 36020 ft 380 kts 235°
2026-04-26 15:06 -28.01225 -59.70375 36021 ft 379 kts 235°
2026-04-26 15:07 -28.06736 -59.76740 36032 ft 376 kts 236°
2026-04-26 15:07 -28.10354 -59.80933 36031 ft 374 kts 236°
2026-04-26 15:08 -28.13975 -59.85151 36030 ft 373 kts 236°
2026-04-26 15:08 -28.17581 -59.89379 36028 ft 372 kts 236°
2026-04-26 15:09 -28.21186 -59.93606 36027 ft 372 kts 236°
2026-04-26 15:09 -28.24786 -59.97838 36025 ft 372 kts 236°
2026-04-26 15:10 -28.27170 -60.00637 36024 ft 372 kts 236°
2026-04-26 15:10 -28.31955 -60.06256 36022 ft 372 kts 236°
2026-04-26 15:11 -28.35550 -60.10478 36024 ft 372 kts 236°
2026-04-26 15:11 -28.39140 -60.14704 36026 ft 372 kts 236°
2026-04-26 15:12 -28.42153 -60.18247 36026 ft 372 kts 236°
2026-04-26 15:12 -28.45722 -60.22454 36025 ft 372 kts 236°
2026-04-26 15:13 -28.49315 -60.26689 36026 ft 372 kts 236°
2026-04-26 15:13 -28.52897 -60.30938 36026 ft 371 kts 236°
2026-04-26 15:14 -28.56477 -60.35180 36026 ft 372 kts 236°
2026-04-26 15:14 -28.60061 -60.39415 36029 ft 371 kts 236°
2026-04-26 15:15 -28.63638 -60.43646 36031 ft 371 kts 237°
2026-04-26 15:15 -28.67218 -60.47891 36030 ft 371 kts 237°
2026-04-26 15:16 -28.70761 -60.52107 36032 ft 371 kts 237°
2026-04-26 15:16 -28.74320 -60.56347 36033 ft 371 kts 237°
2026-04-26 15:17 -28.77306 -60.59905 36047 ft 370 kts 237°
2026-04-26 15:17 -28.81470 -60.64818 36048 ft 371 kts 236°
2026-04-26 15:18 -28.85072 -60.69028 36052 ft 371 kts 236°
2026-04-26 15:18 -28.88661 -60.73246 36052 ft 370 kts 236°
2026-04-26 15:19 -28.92244 -60.77468 36043 ft 370 kts 237°
2026-04-26 15:19 -28.95832 -60.81692 36048 ft 371 kts 237°
2026-04-26 15:20 -28.99418 -60.85922 36042 ft 370 kts 237°
2026-04-26 15:20 -29.03005 -60.90153 36050 ft 371 kts 237°
2026-04-26 15:21 -29.06583 -60.94383 36049 ft 370 kts 237°
2026-04-26 15:21 -29.10164 -60.98618 36052 ft 370 kts 237°
2026-04-26 15:22 -29.13731 -61.02863 36060 ft 370 kts 237°
2026-04-26 15:22 -29.17248 -61.07109 36063 ft 369 kts 237°
2026-04-26 15:23 -29.20771 -61.11375 36062 ft 369 kts 237°
2026-04-26 15:23 -29.24297 -61.15635 36063 ft 368 kts 237°
2026-04-26 15:24 -29.27826 -61.19901 36060 ft 368 kts 237°
2026-04-26 15:24 -29.31331 -61.24144 36061 ft 368 kts 237°
2026-04-26 15:25 -29.34275 -61.27715 36063 ft 368 kts 237°
2026-04-26 15:25 -29.38373 -61.32679 36062 ft 368 kts 237°
2026-04-26 15:26 -29.41886 -61.36948 36065 ft 368 kts 237°
2026-04-26 15:26 -29.45407 -61.41222 36069 ft 368 kts 237°
2026-04-26 15:27 -29.47733 -61.44050 36068 ft 368 kts 237°